Weather History for KCCY - January, 2013

Change the Weather History Date:

Saturday, January 5, 2013

  Actual Average Record
Temperature  
Mean Temperature 22 °F -  
Max Temperature 32 °F 23 °F 57 °F (2012)
Min Temperature 12 °F 4 °F -23 °F (1988)
Degree Days  
Heating Degree Days 43    
Moisture  
Dew Point 16 °F    
Average Humidity 84    
Maximum Humidity 93    
Minimum Humidity 74    
Precipitation  
Precipitation 0.00 in - - ()
Sea Level Pressure  
Sea Level Pressure 29.99 in    
Wind  
Wind Speed 10 mph (SW)    
Max Wind Speed 18 mph    
Max Gust Speed 26 mph    
Visibility 8 miles    
Events      
Averages and records for this station are not official NWS values.
T = Trace of Precipitation, MM = Missing Value Source: NWS Daily Summary

Daily Weather History Graph

Daily Weather History Graph

Search for Another Location

Airport or City:

Trip Planner

Search our weather history database for the weather conditions in past years. The results will help you decide how hot, cold, wet, or windy it might be!

Date:

Astronomy

Jan. 05, 2013 Rise Set
Actual Time 7:42 AM CST 4:50 PM CST
Civil Twilight 7:09 AM CST 5:22 PM CST
Nautical Twilight 6:34 AM CST 5:58 PM CST
Astronomical Twilight 5:59 AM CST 6:32 PM CST
Moon 12:43 AM CST (1/5) 11:45 AM CST (1/5)
Length of Visible Light 10h 12m
Length of Day
9h 08m
Last Quarter, 44% of the Moon is Illuminated
Jan 5
Last Quarter
Jan 11
New
Jan 18
First Quarter
Jan 26
Full
Feb 3
Last Quarter

Hourly Weather History & Observations

Time (CST) Temp. Windchill Dew Point Humidity Pressure Visibility Wind Dir Wind Speed Gust Speed Precip Events Conditions
12:15 AM 14.0 °F 2.0 °F 12.2 °F 93% 30.14 in 5.0 mi South 9.2 mph - N/A   Clear
12:35 AM 14.0 °F 5.1 °F 10.4 °F 86% 30.13 in 5.0 mi South 5.8 mph - N/A   Clear
12:55 AM 14.0 °F 8.2 °F 10.4 °F 86% 30.12 in 7.0 mi SSE 3.5 mph - N/A   Clear
1:15 AM 12.2 °F 4.3 °F 8.6 °F 85% 30.12 in 4.0 mi SE 4.6 mph - N/A   Clear
1:35 AM 12.2 °F 2.9 °F 8.6 °F 85% 30.11 in 4.0 mi South 5.8 mph - N/A   Clear
1:55 AM 12.2 °F 1.7 °F 10.4 °F 92% 30.11 in 5.0 mi SSE 6.9 mph - N/A   Clear
2:15 AM 12.2 °F 0.7 °F 8.6 °F 85% 30.11 in 6.0 mi South 8.1 mph - N/A   Clear
2:35 AM 12.2 °F 0.7 °F 8.6 °F 85% 30.11 in 6.0 mi South 8.1 mph - N/A   Clear
2:55 AM 12.2 °F 0.7 °F 8.6 °F 85% 30.11 in 7.0 mi SSE 8.1 mph - N/A   Clear
3:15 AM 14.0 °F 2.0 °F 10.4 °F 86% 30.10 in 7.0 mi South 9.2 mph - N/A   Clear
3:35 AM 14.0 °F 3.9 °F 10.4 °F 86% 30.08 in 6.0 mi SSE 6.9 mph - N/A   Clear
3:55 AM 14.0 °F 2.9 °F 10.4 °F 86% 30.07 in 6.0 mi SSE 8.1 mph - N/A   Clear
4:15 AM 14.0 °F 2.0 °F 10.4 °F 86% 30.07 in - South 9.2 mph - N/A   Unknown
4:35 AM 14.0 °F 2.9 °F 10.4 °F 86% 30.07 in 6.0 mi South 8.1 mph - N/A   Clear
4:55 AM 12.2 °F -0.2 °F 8.6 °F 85% 30.08 in 6.0 mi South 9.2 mph - N/A   Partly Cloudy
5:15 AM 14.0 °F 2.9 °F 10.4 °F 86% 30.06 in 6.0 mi SSE 8.1 mph - N/A   Scattered Clouds
5:35 AM 14.0 °F 2.9 °F 12.2 °F 93% 30.06 in 6.0 mi SSE 8.1 mph - N/A   Mostly Cloudy
5:55 AM 14.0 °F 2.9 °F 10.4 °F 86% 30.06 in 6.0 mi South 8.1 mph - N/A   Mostly Cloudy
6:15 AM 14.0 °F 2.0 °F 10.4 °F 86% 30.06 in 6.0 mi South 9.2 mph - N/A   Scattered Clouds
6:35 AM 15.8 °F 5.1 °F 12.2 °F 86% 30.04 in 6.0 mi SSE 8.1 mph - N/A   Mostly Cloudy
6:55 AM 17.6 °F 5.7 °F 14.0 °F 86% 30.04 in 6.0 mi South 10.4 mph - N/A   Mostly Cloudy
7:15 AM 15.8 °F 4.2 °F 14.0 °F 93% 30.03 in 5.0 mi South 9.2 mph - N/A   Partly Cloudy
7:35 AM 15.8 °F 5.1 °F 12.2 °F 86% 30.03 in 4.0 mi South 8.1 mph - N/A   Partly Cloudy
7:55 AM 14.0 °F 1.2 °F 12.2 °F 93% 30.02 in 3.0 mi SSE 10.4 mph - N/A   Clear
8:15 AM 15.8 °F 5.1 °F 14.0 °F 93% 30.02 in 3.0 mi South 8.1 mph - N/A   Clear
8:35 AM 17.6 °F 3.7 °F 14.0 °F 86% 30.02 in 3.0 mi South 13.8 mph - N/A   Scattered Clouds
8:55 AM 17.6 °F 2.7 °F 15.8 °F 93% 30.03 in 3.0 mi South 16.1 mph - N/A   Mostly Cloudy
9:15 AM 19.4 °F 7.2 °F 15.8 °F 86% 30.03 in 3.0 mi South 11.5 mph - N/A   Mostly Cloudy
9:55 AM 21.2 °F 10.9 °F 17.6 °F 86% 30.03 in 5.0 mi SSW 9.2 mph - N/A   Partly Cloudy
10:15 AM 21.2 °F 8.9 °F 17.6 °F 86% 30.01 in 5.0 mi South 12.7 mph - N/A   Clear
10:55 AM 23.0 °F 11.7 °F 19.4 °F 86% 30.00 in 6.0 mi SSW 11.5 mph - N/A   Partly Cloudy
11:15 AM 26.6 °F 14.3 °F 23.0 °F 86% 29.99 in 7.0 mi South 16.1 mph - N/A   Clear
11:55 AM 28.4 °F 15.8 °F 23.0 °F 80% 29.95 in 9.0 mi SSW 18.4 mph - N/A   Clear
12:15 PM 30.2 °F 18.1 °F 23.0 °F 75% 29.94 in 9.0 mi SSW 18.4 mph 25.3 mph N/A   Clear
12:35 PM 30.2 °F 18.9 °F 24.8 °F 80% 29.92 in 9.0 mi SSW 16.1 mph - N/A   Clear
12:55 PM 30.2 °F 19.8 °F 24.8 °F 80% 29.91 in 9.0 mi SSW 13.8 mph 20.7 mph N/A   Clear
1:15 PM 30.2 °F 19.8 °F 24.8 °F 80% 29.90 in 9.0 mi SSW 13.8 mph 19.6 mph N/A   Clear
1:35 PM 32.0 °F 21.2 °F 26.6 °F 80% 29.90 in 10.0 mi SW 16.1 mph 24.2 mph N/A   Scattered Clouds
1:55 PM 32.0 °F 22.1 °F 26.6 °F 80% 29.89 in 10.0 mi SW 13.8 mph 20.7 mph N/A   Overcast
2:15 PM 32.0 °F 22.1 °F 26.6 °F 80% 29.89 in 10.0 mi SW 13.8 mph - N/A   Overcast
2:35 PM 32.0 °F 23.6 °F 26.6 °F 80% 29.88 in 10.0 mi SW 10.4 mph 18.4 mph N/A   Overcast
2:55 PM 32.0 °F 22.1 °F 26.6 °F 80% 29.88 in 10.0 mi SW 13.8 mph - N/A   Overcast
3:15 PM 32.0 °F 20.8 °F 26.6 °F 80% 29.88 in 10.0 mi WSW 17.3 mph - N/A   Overcast
3:35 PM 32.0 °F 22.1 °F 26.6 °F 80% 29.88 in 10.0 mi WSW 13.8 mph 20.7 mph N/A   Mostly Cloudy
3:55 PM 32.0 °F 20.5 °F 24.8 °F 75% 29.88 in 9.0 mi WSW 18.4 mph 26.5 mph N/A   Partly Cloudy
4:15 PM 30.2 °F 18.9 °F 24.8 °F 80% 29.88 in 9.0 mi WSW 16.1 mph 21.9 mph N/A   Clear
4:55 PM 28.4 °F 16.6 °F 23.0 °F 80% 29.89 in - WSW 16.1 mph 25.3 mph N/A   Scattered Clouds
5:15 PM 26.6 °F 13.4 °F 21.2 °F 80% 29.89 in 9.0 mi West 18.4 mph - N/A   Scattered Clouds
5:35 PM 24.8 °F 12.9 °F 19.4 °F 80% 29.90 in 10.0 mi West 13.8 mph 21.9 mph N/A   Clear
5:55 PM 24.8 °F 12.4 °F 17.6 °F 74% 29.91 in 10.0 mi West 15.0 mph - N/A   Clear
6:15 PM 23.0 °F 10.6 °F 17.6 °F 80% 29.92 in 10.0 mi West 13.8 mph - N/A   Partly Cloudy
6:35 PM 23.0 °F 11.7 °F 17.6 °F 80% 29.92 in 10.0 mi West 11.5 mph - N/A   Partly Cloudy
6:55 PM 21.2 °F 8.9 °F 17.6 °F 86% 29.93 in 10.0 mi West 12.7 mph - N/A   Clear
7:15 PM 21.2 °F 8.9 °F 17.6 °F 86% 29.93 in 10.0 mi West 12.7 mph - N/A   Mostly Cloudy
7:55 PM 19.4 °F 7.2 °F 15.8 °F 86% 29.94 in 10.0 mi West 11.5 mph - N/A   Partly Cloudy
8:15 PM 19.4 °F 7.2 °F 15.8 °F 86% 29.95 in 10.0 mi West 11.5 mph - N/A   Clear
8:35 PM 17.6 °F 6.4 °F 14.0 °F 86% 29.95 in 10.0 mi WNW 9.2 mph - N/A   Clear
8:55 PM 17.6 °F 6.4 °F 14.0 °F 86% 29.95 in 10.0 mi WNW 9.2 mph - N/A   Clear
9:15 PM 17.6 °F 6.4 °F 12.2 °F 79% 29.95 in 10.0 mi WNW 9.2 mph - N/A   Clear
9:35 PM 17.6 °F 5.0 °F 12.2 °F 79% 29.96 in 10.0 mi WNW 11.5 mph - N/A   Clear
9:55 PM 17.6 °F 4.3 °F 12.2 °F 79% 29.97 in 10.0 mi WNW 12.7 mph - N/A   Clear
10:15 PM 17.6 °F 2.7 °F 12.2 °F 79% 29.98 in 10.0 mi WNW 16.1 mph - N/A   Partly Cloudy
10:35 PM 15.8 °F 2.1 °F 10.4 °F 79% 29.98 in 10.0 mi WNW 12.7 mph - N/A   Mostly Cloudy
10:55 PM 15.8 °F 3.4 °F 10.4 °F 79% 29.98 in 10.0 mi WNW 10.4 mph - N/A   Mostly Cloudy
11:15 PM 15.8 °F 2.7 °F 10.4 °F 79% 29.99 in 10.0 mi WNW 11.5 mph - N/A   Scattered Clouds
11:35 PM 14.0 °F -1.4 °F 8.6 °F 79% 30.01 in 10.0 mi WNW 15.0 mph - N/A   Scattered Clouds
11:55 PM 14.0 °F -2.5 °F 8.6 °F 79% 30.01 in 9.0 mi WNW 17.3 mph 23.0 mph N/A   Mostly Cloudy